When you browse on this site, cookies collect data to enhance your experience and personalize the content and advertising you see.
Visit our Privacy Policy to learn more. By continuing to use the site, you agree to this use of cookies and data.
  • In Schweiz
  • Länderverzeichnis
  • Für 7 Tage
  • Wassertemperatur
  • Wetterkarte
  • Widgets
  • user-avatar
    Anmelden

    Stündliche Wetter Tampere

    Heute, 27 Februar, Donnerstag

    Zeit Temperatur Niederschläge Wind Luftdruck Luftfeuchtigkeit
    00:00 -6°C° 0 mm 3 m/S 740 mmHg 52%
    01:00 -7°C° 0 mm 3 m/S 740 mmHg 53%
    02:00 -7°C° 0 mm 3 m/S 740 mmHg 56%
    03:00 -7°C° 0 mm 3 m/S 740 mmHg 57%
    04:00 -6°C° 0 mm 2 m/S 740 mmHg 58%
    05:00 -7°C° 0 mm 2 m/S 740 mmHg 58%
    06:00 -7°C° 0 mm 2 m/S 741 mmHg 59%
    07:00 -7°C° 0 mm 2 m/S 741 mmHg 60%
    08:00 -7°C° 0 mm 2 m/S 741 mmHg 60%
    09:00 -7°C° 0 mm 3 m/S 741 mmHg 56%
    10:00 -6°C° 0 mm 3 m/S 741 mmHg 52%
    11:00 -5°C° 0 mm 3 m/S 741 mmHg 49%
    12:00 -5°C° 0 mm 3 m/S 741 mmHg 45%
    13:00 -4°C° 0 mm 3 m/S 741 mmHg 41%
    14:00 -4°C° 0 mm 4 m/S 741 mmHg 37%
    15:00 -4°C° 0 mm 3 m/S 741 mmHg 38%
    16:00 -4°C° 0 mm 3 m/S 741 mmHg 40%
    17:00 -5°C° 0 mm 3 m/S 741 mmHg 42%
    18:00 -5°C° 0 mm 3 m/S 741 mmHg 45%
    19:00 -5°C° 0 mm 3 m/S 741 mmHg 48%
    20:00 -6°C° 0 mm 3 m/S 741 mmHg 52%
    21:00 -6°C° 0 mm 3 m/S 740 mmHg 55%
    22:00 -6°C° 0 mm 3 m/S 740 mmHg 58%
    23:00 -7°C° 0 mm 3 m/S 740 mmHg 61%

    Morgen, 28 Februar, Freitag

    Zeit Temperatur Niederschläge Wind Luftdruck Luftfeuchtigkeit
    00:00 -7°C° 0 mm 3 m/S 740 mmHg 63%
    01:00 -7°C° 0 mm 3 m/S 740 mmHg 65%
    02:00 -6°C° 0 mm 2 m/S 741 mmHg 67%
    03:00 -6°C° 0 mm 2 m/S 741 mmHg 68%
    04:00 -7°C° 0 mm 2 m/S 741 mmHg 69%
    05:00 -7°C° 0 mm 2 m/S 741 mmHg 70%
    06:00 -7°C° 0 mm 2 m/S 741 mmHg 70%
    07:00 -7°C° 0 mm 2 m/S 741 mmHg 70%
    08:00 -7°C° 0 mm 2 m/S 741 mmHg 69%
    09:00 -7°C° 0 mm 2 m/S 741 mmHg 65%
    10:00 -6°C° 0 mm 2 m/S 741 mmHg 61%
    11:00 -5°C° 0 mm 2 m/S 741 mmHg 56%
    12:00 -2°C° 0 mm 1 m/S 741 mmHg 52%
    13:00 -1°C° 0 mm 1 m/S 741 mmHg 48%
    14:00 -1°C° 0 mm 1 m/S 741 mmHg 44%
    15:00 -1°C° 0 mm 1 m/S 741 mmHg 46%
    16:00 -1°C° 0 mm 1 m/S 741 mmHg 47%
    17:00 -1°C° 0 mm 1 m/S 741 mmHg 49%
    18:00 -2°C° 0 mm 1 m/S 741 mmHg 51%
    19:00 -2°C° 0 mm 1 m/S 741 mmHg 52%
    20:00 -3°C° 0 mm 1 m/S 741 mmHg 54%
    21:00 -3°C° 0 mm 1 m/S 742 mmHg 55%
    22:00 -3°C° 0 mm 1 m/S 742 mmHg 56%
    23:00 -3°C° 0 mm 1 m/S 742 mmHg 58%

    übermorgen, 29 Februar, Samstag

    Zeit Temperatur Niederschläge Wind Luftdruck Luftfeuchtigkeit
    00:00 -4°C° 0 mm 1 m/S 742 mmHg 59%
    01:00 -4°C° 0 mm 1 m/S 742 mmHg 60%
    02:00 -4°C° 0 mm 1 m/S 742 mmHg 61%
    03:00 -4°C° 0 mm 1 m/S 741 mmHg 63%
    04:00 -6°C° 0 mm 1 m/S 741 mmHg 65%
    05:00 -6°C° 0 mm 1 m/S 741 mmHg 67%
    06:00 -6°C° 0 mm 1 m/S 741 mmHg 68%
    07:00 -7°C° 0 mm 2 m/S 741 mmHg 70%
    08:00 -7°C° 0 mm 2 m/S 741 mmHg 71%
    09:00 -6°C° 0 mm 2 m/S 741 mmHg 69%
    10:00 -5°C° 0 mm 3 m/S 741 mmHg 67%
    11:00 -4°C° 0 mm 3 m/S 741 mmHg 65%
    12:00 -2°C° 0 mm 3 m/S 741 mmHg 69%
    13:00 -2°C° 0 mm 3 m/S 741 mmHg 73%
    14:00 -2°C° 0 mm 4 m/S 741 mmHg 77%
    15:00 -1°C° 0 mm 3 m/S 741 mmHg 78%
    16:00 -1°C° 0 mm 3 m/S 740 mmHg 79%
    17:00 -1°C° 0 mm 3 m/S 740 mmHg 79%
    18:00 -1°C° 0 mm 3 m/S 740 mmHg 81%
    19:00 -1°C° 0 mm 3 m/S 740 mmHg 84%
    20:00 -2°C° 0 mm 4 m/S 739 mmHg 86%
    21:00 -2°C° 0 mm 4 m/S 739 mmHg 86%
    22:00 -2°C° 0 mm 4 m/S 738 mmHg 86%
    23:00 -2°C° 0 mm 5 m/S 738 mmHg 87%

    1 März, Sonntag

    Zeit Temperatur Niederschläge Wind Luftdruck Luftfeuchtigkeit
    00:00 -2°C° 0 mm 5 m/S 737 mmHg 87%
    01:00 -2°C° 0 mm 5 m/S 737 mmHg 87%
    02:00 -2°C° 0 mm 5 m/S 736 mmHg 88%
    03:00 -2°C° 0.3 mm 5 m/S 735 mmHg 91%
    04:00 -2°C° 0.3 mm 5 m/S 734 mmHg 93%
    05:00 -3°C° 0.3 mm 6 m/S 733 mmHg 96%
    06:00 -3°C° 0.4 mm 6 m/S 733 mmHg 96%
    07:00 -2°C° 0.4 mm 6 m/S 732 mmHg 96%
    08:00 -2°C° 0.4 mm 6 m/S 731 mmHg 96%
    09:00 -2°C° 0.5 mm 6 m/S 730 mmHg 96%
    10:00 0°C° 0.5 mm 5 m/S 730 mmHg 96%
    11:00 +1°C° 0.5 mm 5 m/S 729 mmHg 95%
    12:00 +1°C° 0.3 mm 5 m/S 729 mmHg 91%
    13:00 +1°C° 0.3 mm 5 m/S 730 mmHg 86%
    14:00 +1°C° 0.3 mm 5 m/S 730 mmHg 82%
    15:00 +1°C° 0 mm 5 m/S 730 mmHg 81%
    16:00 +1°C° 0 mm 5 m/S 731 mmHg 79%
    17:00 0°C° 0 mm 5 m/S 731 mmHg 78%
    18:00 0°C° 0 mm 4 m/S 732 mmHg 81%
    19:00 0°C° 0 mm 4 m/S 732 mmHg 84%
    20:00 0°C° 0 mm 4 m/S 732 mmHg 88%
    21:00 0°C° 0.1 mm 4 m/S 732 mmHg 89%
    22:00 0°C° 0.1 mm 4 m/S 732 mmHg 91%
    23:00 0°C° 0.1 mm 4 m/S 732 mmHg 93%

    2 März, Montag

    Zeit Temperatur Niederschläge Wind Luftdruck Luftfeuchtigkeit
    00:00 -1°C° 0 mm 4 m/S 732 mmHg 93%
    01:00 -1°C° 0 mm 4 m/S 732 mmHg 93%
    02:00 -1°C° 0 mm 4 m/S 732 mmHg 93%
    03:00 -1°C° 0 mm 4 m/S 732 mmHg 93%
    04:00 -1°C° 0 mm 4 m/S 732 mmHg 93%
    05:00 -1°C° 0 mm 4 m/S 732 mmHg 93%
    06:00 -1°C° 0.6 mm 4 m/S 733 mmHg 94%
    07:00 -1°C° 0.6 mm 4 m/S 733 mmHg 96%
    08:00 -1°C° 0.6 mm 4 m/S 733 mmHg 97%
    09:00 -1°C° 0.5 mm 4 m/S 733 mmHg 96%
    10:00 0°C° 0.5 mm 4 m/S 734 mmHg 95%
    11:00 0°C° 0.5 mm 4 m/S 734 mmHg 93%
    12:00 +1°C° 0 mm 4 m/S 734 mmHg 91%
    13:00 +1°C° 0 mm 4 m/S 735 mmHg 88%
    14:00 +1°C° 0 mm 4 m/S 735 mmHg 86%
    15:00 +1°C° 0 mm 4 m/S 735 mmHg 86%
    16:00 +1°C° 0 mm 4 m/S 735 mmHg 87%
    17:00 +1°C° 0 mm 4 m/S 736 mmHg 87%
    18:00 +1°C° 0 mm 4 m/S 736 mmHg 89%
    19:00 0°C° 0 mm 4 m/S 736 mmHg 90%
    20:00 0°C° 0 mm 4 m/S 736 mmHg 91%
    21:00 0°C° 0.7 mm 4 m/S 736 mmHg 93%
    22:00 0°C° 0.7 mm 4 m/S 736 mmHg 95%
    23:00 0°C° 0.7 mm 4 m/S 736 mmHg 97%

    3 März, Dienstag

    Zeit Temperatur Niederschläge Wind Luftdruck Luftfeuchtigkeit
    00:00 0°C° 0.6 mm 4 m/S 736 mmHg 97%
    01:00 0°C° 0.6 mm 4 m/S 736 mmHg 96%
    02:00 0°C° 0.6 mm 4 m/S 736 mmHg 96%
    03:00 +1°C° 0.4 mm 3 m/S 736 mmHg 96%
    04:00 +1°C° 0.4 mm 3 m/S 735 mmHg 97%
    05:00 +1°C° 0.4 mm 3 m/S 735 mmHg 97%
    06:00 +1°C° 0.7 mm 3 m/S 735 mmHg 97%
    07:00 +2°C° 0.7 mm 2 m/S 735 mmHg 98%
    08:00 +2°C° 0.7 mm 2 m/S 735 mmHg 98%
    09:00 +2°C° 0.2 mm 2 m/S 735 mmHg 97%
    10:00 +2°C° 0.2 mm 2 m/S 734 mmHg 95%
    11:00 +2°C° 0.2 mm 2 m/S 734 mmHg 94%
    12:00 +2°C° 0 mm 3 m/S 735 mmHg 89%
    13:00 +2°C° 0 mm 3 m/S 735 mmHg 85%
    14:00 +3°C° 0 mm 4 m/S 735 mmHg 80%
    15:00 +1°C° 0.4 mm 4 m/S 735 mmHg 82%
    16:00 0°C° 0.4 mm 4 m/S 735 mmHg 84%
    17:00 -1°C° 0.4 mm 4 m/S 735 mmHg 86%
    18:00 -2°C° 0.2 mm 4 m/S 735 mmHg 88%
    19:00 -2°C° 0.2 mm 4 m/S 736 mmHg 90%
    20:00 -2°C° 0.2 mm 5 m/S 736 mmHg 93%
    21:00 -2°C° 0.1 mm 4 m/S 737 mmHg 91%
    22:00 -2°C° 0.1 mm 4 m/S 737 mmHg 89%
    23:00 -2°C° 0.1 mm 4 m/S 738 mmHg 87%
    Mehr zeigen